Location: Franzen
(48.6167°N, 15.3833°E)
Time: 09:29:10
(UTC+00:00)

Altair - Pass Details

Date: 09 August 2021
Orbit: 1501 x 1682 km, 47.2° (Epoch: 20 September)

Event Time Altitude Azimuth Distance (km) Brightness Sun altitude
Rises 02:44:25 0° 280° (W) 4,722 9.7 -9.2°
Reaches altitude 10° 02:47:31 10° 279° (W) 3,717 9.1 -8.8°
Maximum altitude 02:56:48 73° 197° (SSW) 1,571 7.5 -7.5°
Drops below altitude 10° 03:05:54 10° 115° (ESE) 3,649 10.0 -6.3°
Sets 03:08:55 0° 114° (ESE) 4,632 10.5 -5.8°
